Weather in Vinzili

Russia / Tyumen Oblast     56˚57′22″N   65˚45′47″E
temp.,
°C
wind,
m/s
gust,
m/s
humid.,
%
clouds,
%
prec.,
mm/h
press.,
hPa
HPBL,
m
29 november, sun
sun2923:00−12˚n249399 0.0 1043197
02:00−12˚nnw249598 0.0 1044153
05:00−13˚nnw259592 0.0 1046203
08:00−14˚nnw249588 0.0 1047128
11:00−13˚nnw359077 0.0 1048250
14:00−11˚nnw248866 0.0 1048319
17:00−13˚nw229554 0.0 105066
20:00−13˚nw22960 0.0 105045
30 november, mon
mon3023:00−14˚nnw12960 0.0 105129
02:00−14˚nw11950 0.0 105123
05:00−14˚wnw11950 0.0 105223
08:00−14˚wnw11950 0.0 105221
11:00−12˚wsw11890 0.0 105395
14:00−10˚wsw12840 0.0 1052208
17:00−12˚sw12920 0.0 105320
20:00−13˚sw12930 0.0 105321
1 december, tue
tue123:00−13˚sw229230 0.0 105236
02:00−13˚sw229166 0.0 105236
05:00−13˚sw239155 0.0 105251
08:00−13˚sw239153 0.0 105260
11:00−11˚sw238337 0.0 1052132
14:00−9˚ssw24819 0.0 1051189
17:00−12˚ssw25905 0.0 105195
20:00−13˚sw23890 0.0 105180
2 december, wed
wed223:00−14˚ssw25880 0.0 1051111
02:00−14˚ssw24880 0.0 105094
05:00−14˚ssw25880 0.0 1050121
08:00−15˚ssw25880 0.0 1049123
11:00−13˚ssw25791 0.0 1048181
14:00−11˚ssw25790 0.0 1047243
17:00−14˚ssw25900 0.0 1046127
20:00−14˚ssw24910 0.0 1045105
3 december, thu
thu323:00−14˚ssw24900 0.0 104598
02:00−14˚sw23890 0.0 104570
05:00−14˚sw22911 0.0 104449
08:00−14˚sw22900 0.0 104439
11:00−12˚sw12840 0.0 104593
14:00−10˚sw12810 0.0 1045151
17:00−13˚sw11900 0.0 104420
20:00−13˚wsw11915 0.0 104520